Time,TemperatureF,DewpointF,PressureIn,WindDirection,WindDirectionDegrees,WindSpeedMPH,WindSpeedGustMPH,Humidity,HourlyPrecipIn,Conditions,Clouds,dailyrainin,SoftwareType,DateUTC
2013-01-19 00:03:00,37.6,18.1,30.10,NE,45,0.0,0.0,45,0.00,,,0.00,WUHU216HW,2013-01-19 07:03:00,
2013-01-19 00:08:00,37.8,18.3,30.10,NE,45,0.0,0.0,45,0.00,,,0.00,WUHU216HW,2013-01-19 07:08:00,
2013-01-19 00:13:00,37.8,18.3,30.10,NE,45,0.0,0.0,45,0.00,,,0.00,WUHU216HW,2013-01-19 07:13:00,
2013-01-19 00:18:00,37.8,18.3,30.11,NE,45,0.0,0.0,45,0.00,,,0.00,WUHU216HW,2013-01-19 07:18:00,
2013-01-19 00:23:00,37.8,18.3,30.11,NNE,23,0.0,0.7,45,0.00,,,0.00,WUHU216HW,2013-01-19 07:23:00,
2013-01-19 00:28:00,38.0,18.4,30.11,NNE,23,0.0,0.7,45,0.00,,,0.00,WUHU216HW,2013-01-19 07:28:00,
2013-01-19 00:33:00,37.8,18.3,30.11,NNE,23,0.0,0.0,45,0.00,,,0.00,WUHU216HW,2013-01-19 07:33:00,
2013-01-19 00:38:00,37.8,18.3,30.10,NNE,23,0.0,0.0,45,0.00,,,0.00,WUHU216HW,2013-01-19 07:38:00,
2013-01-19 00:43:00,37.8,18.3,30.10,NNE,23,0.0,0.0,45,0.00,,,0.00,WUHU216HW,2013-01-19 07:43:00,
2013-01-19 00:48:00,37.6,18.1,30.11,NNE,23,0.0,0.0,45,0.00,,,0.00,WUHU216HW,2013-01-19 07:48:00,
2013-01-19 00:53:00,37.4,17.9,30.11,North,0,0.0,0.4,45,0.00,,,0.00,WUHU216HW,2013-01-19 07:53:00,
2013-01-19 00:58:00,37.4,17.9,30.11,North,0,0.0,0.4,45,0.00,,,0.00,WUHU216HW,2013-01-19 07:58:00,
2013-01-19 01:03:00,37.3,17.7,30.11,NE,45,0.0,0.2,45,0.00,,,0.00,WUHU216HW,2013-01-19 08:03:00,
2013-01-19 01:08:00,37.3,17.7,30.11,NE,45,0.0,0.0,45,0.00,,,0.00,WUHU216HW,2013-01-19 08:08:00,
2013-01-19 01:13:00,37.1,17.6,30.11,East,90,0.0,0.4,45,0.00,,,0.00,WUHU216HW,2013-01-19 08:13:00,
2013-01-19 01:18:00,37.1,18.1,30.11,ESE,113,0.4,1.3,46,0.00,,,0.00,WUHU216HW,2013-01-19 08:18:00,
2013-01-19 01:23:00,37.1,17.6,30.11,ESE,113,0.0,1.3,45,0.00,,,0.00,WUHU216HW,2013-01-19 08:23:00,
2013-01-19 01:28:00,36.7,17.3,30.11,ESE,113,0.0,0.4,45,0.00,,,0.00,WUHU216HW,2013-01-19 08:28:00,
2013-01-19 01:33:00,36.5,17.7,30.11,NE,45,0.0,0.0,46,0.00,,,0.00,WUHU216HW,2013-01-19 08:33:00,
2013-01-19 01:38:00,36.4,17.5,30.11,NE,45,0.0,0.0,46,0.00,,,0.00,WUHU216HW,2013-01-19 08:38:00,
2013-01-19 01:43:00,36.4,18.0,30.10,NE,45,0.0,0.0,47,0.00,,,0.00,WUHU216HW,2013-01-19 08:43:00,
2013-01-19 01:48:00,36.4,18.0,30.11,NE,45,0.0,0.4,47,0.00,,,0.00,WUHU216HW,2013-01-19 08:48:00,
2013-01-19 01:53:00,36.4,18.0,30.11,WNW,293,0.0,0.4,47,0.00,,,0.00,WUHU216HW,2013-01-19 08:53:00,
2013-01-19 01:58:00,36.2,17.8,30.11,WNW,293,0.0,0.4,47,0.00,,,0.00,WUHU216HW,2013-01-19 08:58:00,
2013-01-19 02:03:00,36.2,17.8,30.11,WNW,293,0.0,0.2,47,0.00,,,0.00,WUHU216HW,2013-01-19 09:03:00,
2013-01-19 02:08:00,36.2,18.4,30.11,WNW,293,0.0,0.2,48,0.00,,,0.00,WUHU216HW,2013-01-19 09:08:00,
2013-01-19 02:13:00,36.0,18.2,30.11,WNW,293,0.0,0.4,48,0.00,,,0.00,WUHU216HW,2013-01-19 09:13:00,
2013-01-19 02:18:00,35.8,18.0,30.11,WNW,293,0.0,0.4,48,0.00,,,0.00,WUHU216HW,2013-01-19 09:18:00,
2013-01-19 02:23:00,35.6,17.8,30.10,WNW,293,0.4,0.4,48,0.00,,,0.00,WUHU216HW,2013-01-19 09:23:00,
2013-01-19 02:28:00,35.6,17.8,30.10,ESE,113,0.0,1.1,48,0.00,,,0.00,WUHU216HW,2013-01-19 09:28:00,
2013-01-19 02:33:00,35.5,18.2,30.10,ESE,113,0.0,1.1,49,0.00,,,0.00,WUHU216HW,2013-01-19 09:33:00,
2013-01-19 02:38:00,35.5,18.2,30.10,ESE,113,0.0,0.0,49,0.00,,,0.00,WUHU216HW,2013-01-19 09:38:00,
2013-01-19 02:43:00,35.3,18.0,30.10,ESE,113,0.0,0.0,49,0.00,,,0.00,WUHU216HW,2013-01-19 09:43:00,
2013-01-19 02:48:00,35.3,18.0,30.10,SW,225,0.0,0.4,49,0.00,,,0.00,WUHU216HW,2013-01-19 09:48:00,
2013-01-19 02:53:00,35.3,18.0,30.10,SW,225,0.0,0.4,49,0.00,,,0.00,WUHU216HW,2013-01-19 09:53:00,
2013-01-19 02:58:00,35.1,17.8,30.10,SW,225,0.0,0.4,49,0.00,,,0.00,WUHU216HW,2013-01-19 09:58:00,
2013-01-19 03:03:00,35.1,17.8,30.10,SW,225,0.0,0.7,49,0.00,,,0.00,WUHU216HW,2013-01-19 10:03:00,
2013-01-19 03:08:00,34.9,18.2,30.10,South,180,0.0,0.7,50,0.00,,,0.00,WUHU216HW,2013-01-19 10:08:00,
2013-01-19 03:13:00,34.9,18.2,30.10,South,180,0.0,0.2,50,0.00,,,0.00,WUHU216HW,2013-01-19 10:13:00,
2013-01-19 03:18:00,34.7,18.0,30.10,SE,135,0.0,0.2,50,0.00,,,0.00,WUHU216HW,2013-01-19 10:18:00,
2013-01-19 03:23:00,34.9,18.2,30.11,SSE,158,0.2,0.4,50,0.00,,,0.00,WUHU216HW,2013-01-19 10:23:00,
2013-01-19 03:28:00,34.6,18.3,30.10,West,270,0.0,0.4,51,0.00,,,0.00,WUHU216HW,2013-01-19 10:28:00,
2013-01-19 03:33:00,34.6,18.3,30.11,SE,135,0.0,0.7,51,0.00,,,0.00,WUHU216HW,2013-01-19 10:33:00,
2013-01-19 03:38:00,34.7,18.5,30.10,ENE,68,0.0,1.3,51,0.00,,,0.00,WUHU216HW,2013-01-19 10:38:00,
2013-01-19 03:43:00,34.9,18.6,30.11,ESE,113,0.0,1.3,51,0.00,,,0.00,WUHU216HW,2013-01-19 10:43:00,
2013-01-19 03:48:00,34.9,19.1,30.11,North,0,0.0,0.4,52,0.00,,,0.00,WUHU216HW,2013-01-19 10:48:00,
2013-01-19 03:53:00,34.9,18.6,30.11,ENE,68,0.0,0.2,51,0.00,,,0.00,WUHU216HW,2013-01-19 10:53:00,
2013-01-19 03:58:00,34.7,18.5,30.10,ESE,113,0.0,0.9,51,0.00,,,0.00,WUHU216HW,2013-01-19 10:58:00,
2013-01-19 04:03:00,34.6,18.7,30.11,East,90,0.0,0.9,52,0.00,,,0.00,WUHU216HW,2013-01-19 11:03:00,
2013-01-19 04:08:00,34.6,18.7,30.11,East,90,0.0,0.4,52,0.00,,,0.00,WUHU216HW,2013-01-19 11:08:00,
2013-01-19 04:14:00,34.6,18.7,30.11,East,90,0.0,0.0,52,0.00,,,0.00,WUHU216HW,2013-01-19 11:14:00,
2013-01-19 04:20:00,34.4,18.6,30.11,East,90,0.0,0.2,52,0.00,,,0.00,WUHU216HW,2013-01-19 11:20:00,
2013-01-19 04:21:00,34.4,18.6,30.11,ENE,68,0.0,0.2,52,0.00,,,0.00,WUHU216HW,2013-01-19 11:21:00,
2013-01-19 04:23:00,34.4,18.6,30.11,NNE,23,0.0,0.2,52,0.00,,,0.00,WUHU216HW,2013-01-19 11:23:00,
2013-01-19 04:24:00,34.4,18.6,30.11,ENE,68,0.2,0.4,52,0.00,,,0.00,WUHU216HW,2013-01-19 11:24:00,
2013-01-19 04:26:00,34.4,18.6,30.11,ENE,68,0.0,0.4,52,0.00,,,0.00,WUHU216HW,2013-01-19 11:26:00,
2013-01-19 04:27:00,34.4,18.6,30.11,ESE,113,0.2,0.4,52,0.00,,,0.00,WUHU216HW,2013-01-19 11:27:00,
2013-01-19 04:30:00,34.4,18.6,30.11,ESE,113,0.0,0.4,52,0.00,,,0.00,WUHU216HW,2013-01-19 11:30:00,
2013-01-19 04:32:00,34.4,18.6,30.11,ESE,113,0.0,0.4,52,0.00,,,0.00,WUHU216HW,2013-01-19 11:32:00,
2013-01-19 04:33:00,34.4,18.6,30.11,ESE,113,0.0,0.4,52,0.00,,,0.00,WUHU216HW,2013-01-19 11:33:00,
2013-01-19 04:35:00,34.4,18.6,30.11,North,0,0.0,0.4,52,0.00,,,0.00,WUHU216HW,2013-01-19 11:35:00,
2013-01-19 04:36:00,34.2,18.4,30.11,North,0,0.0,0.4,52,0.00,,,0.00,WUHU216HW,2013-01-19 11:36:00,
2013-01-19 04:38:00,34.2,18.4,30.11,North,0,0.0,0.4,52,0.00,,,0.00,WUHU216HW,2013-01-19 11:38:00,
2013-01-19 04:39:00,34.2,18.4,30.11,NNE,23,0.0,0.4,52,0.00,,,0.00,WUHU216HW,2013-01-19 11:39:00,
2013-01-19 04:42:00,34.2,18.4,30.11,NNE,23,0.0,0.2,52,0.00,,,0.00,WUHU216HW,2013-01-19 11:42:00,
2013-01-19 04:44:00,34.2,18.4,30.11,NNE,23,0.0,0.2,52,0.00,,,0.00,WUHU216HW,2013-01-19 11:44:00,
2013-01-19 04:45:00,34.2,18.4,30.11,NNE,23,0.0,0.0,52,0.00,,,0.00,WUHU216HW,2013-01-19 11:45:00,
2013-01-19 04:47:00,34.2,18.4,30.11,NNE,23,0.0,0.0,52,0.00,,,0.00,WUHU216HW,2013-01-19 11:47:00,
2013-01-19 04:48:00,34.2,18.4,30.11,NNE,23,0.0,0.0,52,0.00,,,0.00,WUHU216HW,2013-01-19 11:48:00,
2013-01-19 04:51:00,34.2,18.4,30.11,NNE,23,0.0,0.0,52,0.00,,,0.00,WUHU216HW,2013-01-19 11:51:00,
2013-01-19 04:54:00,34.2,18.4,30.11,NNE,23,0.0,0.0,52,0.00,,,0.00,WUHU216HW,2013-01-19 11:54:00,
2013-01-19 04:56:00,34.2,18.4,30.11,NNE,23,0.0,0.0,52,0.00,,,0.00,WUHU216HW,2013-01-19 11:56:00,
2013-01-19 04:57:00,34.2,18.4,30.11,NNE,23,0.0,0.4,52,0.00,,,0.00,WUHU216HW,2013-01-19 11:57:00,
2013-01-19 04:59:00,34.2,18.4,30.11,NNE,23,0.0,0.4,52,0.00,,,0.00,WUHU216HW,2013-01-19 11:59:00,
2013-01-19 05:03:00,34.4,18.6,30.11,NNE,23,0.0,0.4,52,0.00,,,0.00,WUHU216HW,2013-01-19 12:03:00,
2013-01-19 05:05:00,34.4,18.6,30.11,NNE,23,0.0,0.4,52,0.00,,,0.00,WUHU216HW,2013-01-19 12:05:00,
2013-01-19 05:06:00,34.4,18.6,30.11,NNE,23,0.0,0.0,52,0.00,,,0.00,WUHU216HW,2013-01-19 12:06:00,
2013-01-19 05:08:00,34.4,18.6,30.11,NNE,23,0.0,0.0,52,0.00,,,0.00,WUHU216HW,2013-01-19 12:08:00,
2013-01-19 05:09:00,34.4,18.6,30.11,NNE,23,0.0,0.0,52,0.00,,,0.00,WUHU216HW,2013-01-19 12:09:00,
2013-01-19 05:11:00,34.4,18.6,30.11,NNE,23,0.0,0.0,52,0.00,,,0.00,WUHU216HW,2013-01-19 12:11:00,
2013-01-19 05:14:00,34.2,18.4,30.11,NNE,23,0.0,0.0,52,0.00,,,0.00,WUHU216HW,2013-01-19 12:14:00,
2013-01-19 05:15:00,34.2,18.4,30.12,NNE,23,0.0,0.0,52,0.00,,,0.00,WUHU216HW,2013-01-19 12:15:00,
2013-01-19 05:17:00,34.2,18.4,30.12,NNE,23,0.0,0.0,52,0.00,,,0.00,WUHU216HW,2013-01-19 12:17:00,
2013-01-19 05:20:00,34.2,18.4,30.11,NNE,23,0.0,0.0,52,0.00,,,0.00,WUHU216HW,2013-01-19 12:20:00,
2013-01-19 05:21:00,34.2,18.4,30.11,NNE,23,0.0,0.0,52,0.00,,,0.00,WUHU216HW,2013-01-19 12:21:00,
2013-01-19 05:23:00,34.2,18.4,30.11,NNE,23,0.0,0.0,52,0.00,,,0.00,WUHU216HW,2013-01-19 12:23:00,
2013-01-19 05:24:00,34.2,18.4,30.11,NNE,23,0.0,0.0,52,0.00,,,0.00,WUHU216HW,2013-01-19 12:24:00,
2013-01-19 05:26:00,34.2,18.4,30.11,NNE,23,0.0,0.0,52,0.00,,,0.00,WUHU216HW,2013-01-19 12:26:00,
2013-01-19 05:27:00,34.2,18.4,30.11,NNE,23,0.0,0.0,52,0.00,,,0.00,WUHU216HW,2013-01-19 12:27:00,
2013-01-19 05:29:00,34.0,18.2,30.11,NNE,23,0.0,0.0,52,0.00,,,0.00,WUHU216HW,2013-01-19 12:29:00,
2013-01-19 05:30:00,34.0,18.2,30.11,NNE,23,0.0,0.0,52,0.00,,,0.00,WUHU216HW,2013-01-19 12:30:00,
2013-01-19 05:32:00,34.0,18.2,30.11,NNE,23,0.0,0.0,52,0.00,,,0.00,WUHU216HW,2013-01-19 12:32:00,
2013-01-19 05:33:00,34.0,18.2,30.12,NNE,23,0.0,0.0,52,0.00,,,0.00,WUHU216HW,2013-01-19 12:33:00,
2013-01-19 05:35:00,34.0,18.2,30.12,NNE,23,0.0,0.0,52,0.00,,,0.00,WUHU216HW,2013-01-19 12:35:00,
2013-01-19 05:36:00,34.0,18.2,30.12,NNE,23,0.0,0.0,52,0.00,,,0.00,WUHU216HW,2013-01-19 12:36:00,
2013-01-19 05:38:00,34.0,18.2,30.12,NNE,23,0.0,0.0,52,0.00,,,0.00,WUHU216HW,2013-01-19 12:38:00,
2013-01-19 05:47:00,33.8,18.4,30.12,NNE,23,0.0,0.0,53,0.00,,,0.00,WUHU216HW,2013-01-19 12:47:00,
2013-01-19 05:48:00,33.8,18.4,30.12,NNE,23,0.0,0.0,53,0.00,,,0.00,WUHU216HW,2013-01-19 12:48:00,
2013-01-19 05:53:00,33.8,18.4,30.12,NNE,23,0.0,0.0,53,0.00,,,0.00,WUHU216HW,2013-01-19 12:53:00,
2013-01-19 05:58:00,33.8,18.0,30.12,NNE,23,0.0,0.4,52,0.00,,,0.00,WUHU216HW,2013-01-19 12:58:00,
2013-01-19 06:03:00,33.8,18.4,30.12,SE,135,0.0,0.4,53,0.00,,,0.00,WUHU216HW,2013-01-19 13:03:00,
2013-01-19 06:08:00,33.8,18.4,30.12,SE,135,0.0,0.4,53,0.00,,,0.00,WUHU216HW,2013-01-19 13:08:00,
2013-01-19 06:13:00,33.8,18.4,30.12,East,90,0.0,0.2,53,0.00,,,0.00,WUHU216HW,2013-01-19 13:13:00,
2013-01-19 06:18:00,33.8,18.4,30.12,East,90,0.0,0.4,53,0.00,,,0.00,WUHU216HW,2013-01-19 13:18:00,
2013-01-19 06:23:00,33.8,18.4,30.12,ENE,68,0.0,0.4,53,0.00,,,0.00,WUHU216HW,2013-01-19 13:23:00,
2013-01-19 06:28:00,33.7,18.3,30.12,ENE,68,0.0,0.0,53,0.00,,,0.00,WUHU216HW,2013-01-19 13:28:00,
2013-01-19 06:33:00,33.7,18.3,30.12,ENE,68,0.0,0.0,53,0.00,,,0.00,WUHU216HW,2013-01-19 13:33:00,
2013-01-19 06:38:00,33.7,18.3,30.12,ENE,68,0.0,0.0,53,0.00,,,0.00,WUHU216HW,2013-01-19 13:38:00,
2013-01-19 06:43:00,33.7,18.3,30.13,ENE,68,0.0,0.0,53,0.00,,,0.00,WUHU216HW,2013-01-19 13:43:00,
2013-01-19 06:48:00,33.5,18.1,30.13,ENE,68,0.0,0.0,53,0.00,,,0.00,WUHU216HW,2013-01-19 13:48:00,
2013-01-19 06:53:00,33.5,18.1,30.13,ENE,68,0.0,0.0,53,0.00,,,0.00,WUHU216HW,2013-01-19 13:53:00,
2013-01-19 06:58:00,33.5,18.6,30.13,ENE,68,0.0,0.0,54,0.00,,,0.00,WUHU216HW,2013-01-19 13:58:00,
2013-01-19 07:03:00,33.5,18.6,30.13,ENE,68,0.0,0.0,54,0.00,,,0.00,WUHU216HW,2013-01-19 14:03:00,
2013-01-19 07:08:00,33.5,18.6,30.13,ENE,68,0.0,0.0,54,0.00,,,0.00,WUHU216HW,2013-01-19 14:08:00,
2013-01-19 07:13:00,33.5,18.6,30.13,ENE,68,0.0,0.0,54,0.00,,,0.00,WUHU216HW,2013-01-19 14:13:00,
2013-01-19 07:18:00,33.5,18.6,30.13,NNE,23,0.4,0.4,54,0.00,,,0.00,WUHU216HW,2013-01-19 14:18:00,
2013-01-19 07:23:00,33.5,18.6,30.13,WNW,293,0.0,0.4,54,0.00,,,0.00,WUHU216HW,2013-01-19 14:23:00,
2013-01-19 07:28:00,33.5,18.6,30.14,WNW,293,0.0,0.9,54,0.00,,,0.00,WUHU216HW,2013-01-19 14:28:00,
2013-01-19 07:33:00,33.7,18.6,30.14,NW,315,0.0,0.9,54,0.00,,,0.00,WUHU216HW,2013-01-19 14:33:00,
2013-01-19 07:38:00,33.7,19.1,30.14,NW,315,0.0,0.4,55,0.00,,,0.00,WUHU216HW,2013-01-19 14:38:00,
2013-01-19 07:44:00,33.7,19.1,30.14,NW,315,0.0,0.4,55,0.00,,,0.00,WUHU216HW,2013-01-19 14:44:00,
2013-01-19 07:49:00,34.0,19.4,30.14,NW,315,0.0,0.4,55,0.00,,,0.00,WUHU216HW,2013-01-19 14:49:00,
2013-01-19 07:54:00,34.2,19.6,30.14,ENE,68,0.0,0.4,55,0.00,,,0.00,WUHU216HW,2013-01-19 14:54:00,
2013-01-19 07:59:00,34.6,20.0,30.14,WNW,293,0.0,1.1,55,0.00,,,0.00,WUHU216HW,2013-01-19 14:59:00,
2013-01-19 08:04:00,34.9,20.3,30.14,WNW,293,0.0,1.1,55,0.00,,,0.00,WUHU216HW,2013-01-19 15:04:00,
2013-01-19 08:09:00,35.5,20.9,30.15,East,90,0.0,0.7,55,0.00,,,0.00,WUHU216HW,2013-01-19 15:09:00,
2013-01-19 08:14:00,35.8,20.8,30.15,East,90,0.2,0.7,54,0.00,,,0.00,WUHU216HW,2013-01-19 15:14:00,
2013-01-19 08:19:00,36.4,21.2,30.15,ESE,113,0.4,0.4,54,0.00,,,0.00,WUHU216HW,2013-01-19 15:19:00,
2013-01-19 08:24:00,36.9,21.8,30.15,ESE,113,0.0,0.4,54,0.00,,,0.00,WUHU216HW,2013-01-19 15:24:00,
2013-01-19 08:29:00,37.6,22.0,30.15,ENE,68,0.4,0.4,53,0.00,,,0.00,WUHU216HW,2013-01-19 15:29:00,
2013-01-19 08:34:00,38.3,22.6,30.16,SE,135,0.0,0.4,53,0.00,,,0.00,WUHU216HW,2013-01-19 15:34:00,
2013-01-19 08:39:00,38.9,22.7,30.16,ESE,113,0.2,0.4,52,0.00,,,0.00,WUHU216HW,2013-01-19 15:39:00,
2013-01-19 08:44:00,39.8,22.6,30.16,NE,45,0.0,0.4,50,0.00,,,0.00,WUHU216HW,2013-01-19 15:44:00,
2013-01-19 08:49:00,40.7,23.4,30.16,NE,45,0.0,0.4,50,0.00,,,0.00,WUHU216HW,2013-01-19 15:49:00,
2013-01-19 08:54:00,41.4,23.6,30.16,NE,45,0.0,0.2,49,0.00,,,0.00,WUHU216HW,2013-01-19 15:54:00,
2013-01-19 08:59:00,42.1,24.3,30.16,ESE,113,0.0,0.4,49,0.00,,,0.00,WUHU216HW,2013-01-19 15:59:00,
2013-01-19 09:04:00,42.8,24.5,30.16,ESE,113,0.0,0.4,48,0.00,,,0.00,WUHU216HW,2013-01-19 16:04:00,
2013-01-19 09:09:00,43.6,23.5,30.17,ESE,113,0.0,0.7,45,0.00,,,0.00,WUHU216HW,2013-01-19 16:09:00,
2013-01-19 09:14:00,44.3,23.6,30.17,East,90,0.7,0.7,44,0.00,,,0.00,WUHU216HW,2013-01-19 16:14:00,
2013-01-19 09:19:00,45.0,23.8,30.17,East,90,0.0,0.7,43,0.00,,,0.00,WUHU216HW,2013-01-19 16:19:00,
2013-01-19 09:24:00,45.5,23.7,30.17,NE,45,0.7,2.0,42,0.00,,,0.00,WUHU216HW,2013-01-19 16:24:00,
2013-01-19 09:29:00,46.4,23.4,30.17,NE,45,0.0,2.0,40,0.00,,,0.00,WUHU216HW,2013-01-19 16:29:00,
2013-01-19 09:34:00,46.8,23.8,30.17,ESE,113,0.4,2.0,40,0.00,,,0.00,WUHU216HW,2013-01-19 16:34:00,
2013-01-19 09:39:00,47.5,23.0,30.18,NNE,23,0.9,1.8,38,0.00,,,0.00,WUHU216HW,2013-01-19 16:39:00,
2013-01-19 09:44:00,47.9,23.4,30.18,North,0,0.0,2.0,38,0.00,,,0.00,WUHU216HW,2013-01-19 16:44:00,
2013-01-19 09:49:00,48.4,23.9,30.18,East,90,0.0,2.0,38,0.00,,,0.00,WUHU216HW,2013-01-19 16:49:00,
2013-01-19 09:54:00,48.8,24.1,30.18,East,90,1.8,1.8,38,0.00,,,0.00,WUHU216HW,2013-01-19 16:54:00,
2013-01-19 09:59:00,49.3,24.7,30.18,ENE,68,1.8,1.8,38,0.00,,,0.00,WUHU216HW,2013-01-19 16:59:00,
2013-01-19 10:04:00,49.7,24.3,30.18,ENE,68,1.1,1.8,37,0.00,,,0.00,WUHU216HW,2013-01-19 17:04:00,
2013-01-19 10:09:00,50.2,24.8,30.18,SE,135,0.7,1.8,37,0.00,,,0.00,WUHU216HW,2013-01-19 17:09:00,
2013-01-19 10:15:00,50.9,24.8,30.18,NE,45,0.9,1.8,36,0.00,,,0.00,WUHU216HW,2013-01-19 17:15:00,
2013-01-19 10:20:00,51.5,24.5,30.18,NE,45,0.2,2.5,35,0.00,,,0.00,WUHU216HW,2013-01-19 17:20:00,
2013-01-19 10:25:00,51.8,24.1,30.17,NE,45,1.3,2.5,34,0.00,,,0.00,WUHU216HW,2013-01-19 17:25:00,
2013-01-19 10:30:00,52.4,24.7,30.18,NE,45,1.1,1.6,34,0.00,,,0.00,WUHU216HW,2013-01-19 17:30:00,
2013-01-19 10:35:00,52.7,24.9,30.18,NE,45,1.1,1.6,34,0.00,,,0.00,WUHU216HW,2013-01-19 17:35:00,
2013-01-19 10:40:00,53.3,24.8,30.18,NE,45,1.3,1.6,33,0.00,,,0.00,WUHU216HW,2013-01-19 17:40:00,
2013-01-19 10:45:00,53.8,24.6,30.17,SE,135,0.4,2.5,32,0.00,,,0.00,WUHU216HW,2013-01-19 17:45:00,
2013-01-19 10:50:00,54.4,24.3,30.17,NE,45,1.6,2.7,31,0.00,,,0.00,WUHU216HW,2013-01-19 17:50:00,
2013-01-19 10:55:00,54.7,24.6,30.17,NE,45,0.4,2.7,31,0.00,,,0.00,WUHU216HW,2013-01-19 17:55:00,
2013-01-19 11:00:00,55.3,24.3,30.17,NE,45,0.9,3.1,30,0.00,,,0.00,WUHU216HW,2013-01-19 18:00:00,
2013-01-19 11:07:00,55.8,23.9,30.17,NE,45,2.5,3.4,29,0.00,,,0.00,WUHU216HW,2013-01-19 18:07:00,
2013-01-19 11:12:00,56.2,24.2,30.17,NE,45,1.1,3.4,29,0.00,,,0.00,WUHU216HW,2013-01-19 18:12:00,
2013-01-19 11:17:00,56.5,24.5,30.17,NE,45,1.1,2.5,29,0.00,,,0.00,WUHU216HW,2013-01-19 18:17:00,
2013-01-19 11:22:00,56.7,23.8,30.17,NE,45,1.8,2.5,28,0.00,,,0.00,WUHU216HW,2013-01-19 18:22:00,
2013-01-19 11:28:00,57.1,24.0,30.16,NE,45,0.4,3.4,28,0.00,,,0.00,WUHU216HW,2013-01-19 18:28:00,
2013-01-19 11:33:00,57.4,24.4,30.16,NE,45,1.1,3.4,28,0.00,,,0.00,WUHU216HW,2013-01-19 18:33:00,
2013-01-19 11:38:00,57.6,24.5,30.16,NE,45,1.3,2.9,28,0.00,,,0.00,WUHU216HW,2013-01-19 18:38:00,
2013-01-19 11:43:00,58.0,24.9,30.16,NE,45,2.2,2.9,28,0.00,,,0.00,WUHU216HW,2013-01-19 18:43:00,
2013-01-19 11:48:00,58.3,24.2,30.16,NE,45,0.9,3.1,27,0.00,,,0.00,WUHU216HW,2013-01-19 18:48:00,
2013-01-19 11:53:00,58.7,23.5,30.15,ENE,68,1.8,3.1,26,0.00,,,0.00,WUHU216HW,2013-01-19 18:53:00,
2013-01-19 11:58:00,58.9,24.7,30.15,NE,45,1.1,3.1,27,0.00,,,0.00,WUHU216HW,2013-01-19 18:58:00,
2013-01-19 12:03:00,59.2,23.9,30.14,NE,45,2.5,3.4,26,0.00,,,0.00,WUHU216HW,2013-01-19 19:03:00,
2013-01-19 12:08:00,59.4,23.1,30.14,NE,45,1.8,3.4,25,0.00,,,0.00,WUHU216HW,2013-01-19 19:08:00,
2013-01-19 12:14:00,59.6,23.3,30.14,NE,45,1.8,2.5,25,0.00,,,0.00,WUHU216HW,2013-01-19 19:14:00,
2013-01-19 12:19:00,59.9,23.7,30.14,NE,45,1.8,3.4,25,0.00,,,0.00,WUHU216HW,2013-01-19 19:19:00,
2013-01-19 12:25:00,60.3,23.0,30.14,NE,45,2.7,3.4,24,0.00,,,0.00,WUHU216HW,2013-01-19 19:25:00,
2013-01-19 12:30:00,60.5,23.1,30.13,NE,45,1.8,2.9,24,0.00,,,0.00,WUHU216HW,2013-01-19 19:30:00,
2013-01-19 12:35:00,60.8,23.4,30.13,NE,45,1.8,3.1,24,0.00,,,0.00,WUHU216HW,2013-01-19 19:35:00,
2013-01-19 12:40:00,61.2,23.8,30.12,NE,45,0.7,3.4,24,0.00,,,0.00,WUHU216HW,2013-01-19 19:40:00,
2013-01-19 12:45:00,61.4,23.0,30.12,NE,45,1.1,4.7,23,0.00,,,0.00,WUHU216HW,2013-01-19 19:45:00,
2013-01-19 12:50:00,61.6,22.2,30.12,NE,45,0.4,4.7,22,0.00,,,0.00,WUHU216HW,2013-01-19 19:50:00,
2013-01-19 12:55:00,61.7,23.2,30.12,ENE,68,4.0,4.0,23,0.00,,,0.00,WUHU216HW,2013-01-19 19:55:00,
2013-01-19 13:00:00,61.9,22.4,30.12,ENE,68,3.4,4.0,22,0.00,,,0.00,WUHU216HW,2013-01-19 20:00:00,
2013-01-19 13:06:00,61.9,23.4,30.12,ENE,68,1.8,4.0,23,0.00,,,0.00,WUHU216HW,2013-01-19 20:06:00,
2013-01-19 13:11:00,62.3,23.7,30.12,NE,45,2.9,4.0,23,0.00,,,0.00,WUHU216HW,2013-01-19 20:11:00,
2013-01-19 13:16:00,62.6,23.1,30.11,NE,45,3.1,3.6,22,0.00,,,0.00,WUHU216HW,2013-01-19 20:16:00,
2013-01-19 13:21:00,62.6,23.1,30.11,NE,45,3.6,4.3,22,0.00,,,0.00,WUHU216HW,2013-01-19 20:21:00,
2013-01-19 13:27:00,62.6,23.9,30.11,NE,45,2.0,3.8,23,0.00,,,0.00,WUHU216HW,2013-01-19 20:27:00,
2013-01-19 13:32:00,63.0,24.3,30.11,NE,45,1.1,3.8,23,0.00,,,0.00,WUHU216HW,2013-01-19 20:32:00,
2013-01-19 13:37:00,63.2,23.5,30.11,ENE,68,2.5,4.0,22,0.00,,,0.00,WUHU216HW,2013-01-19 20:37:00,
2013-01-19 13:42:00,63.2,23.5,30.11,NE,45,2.5,4.0,22,0.00,,,0.00,WUHU216HW,2013-01-19 20:42:00,
2013-01-19 13:47:00,63.4,23.6,30.11,NE,45,3.4,4.0,22,0.00,,,0.00,WUHU216HW,2013-01-19 20:47:00,
2013-01-19 13:52:00,63.4,23.6,30.11,ENE,68,2.2,3.4,22,0.00,,,0.00,WUHU216HW,2013-01-19 20:52:00,
2013-01-19 13:57:00,63.5,23.8,30.11,NE,45,4.3,4.3,22,0.00,,,0.00,WUHU216HW,2013-01-19 20:57:00,
2013-01-19 14:02:00,63.7,23.9,30.11,NE,45,3.8,4.3,22,0.00,,,0.00,WUHU216HW,2013-01-19 21:02:00,
2013-01-19 14:07:00,63.9,24.0,30.10,NNE,23,0.4,4.3,22,0.00,,,0.00,WUHU216HW,2013-01-19 21:07:00,
2013-01-19 14:13:00,63.9,24.0,30.10,NE,45,3.8,3.8,22,0.00,,,0.00,WUHU216HW,2013-01-19 21:13:00,
2013-01-19 14:18:00,64.1,23.2,30.10,ENE,68,3.4,4.3,21,0.00,,,0.00,WUHU216HW,2013-01-19 21:18:00,
2013-01-19 14:23:00,64.1,24.2,30.10,ESE,113,0.9,4.3,22,0.00,,,0.00,WUHU216HW,2013-01-19 21:23:00,
2013-01-19 14:28:00,64.3,24.3,30.10,ESE,113,1.1,4.3,22,0.00,,,0.00,WUHU216HW,2013-01-19 21:28:00,
2013-01-19 14:33:00,64.3,24.3,30.10,ESE,113,1.3,4.7,22,0.00,,,0.00,WUHU216HW,2013-01-19 21:33:00,
2013-01-19 14:39:00,64.3,24.3,30.10,NE,45,1.8,4.7,22,0.00,,,0.00,WUHU216HW,2013-01-19 21:39:00,
2013-01-19 14:44:00,64.4,24.5,30.10,ESE,113,2.2,4.3,22,0.00,,,0.00,WUHU216HW,2013-01-19 21:44:00,
2013-01-19 14:49:00,64.4,24.5,30.10,NE,45,0.9,4.3,22,0.00,,,0.00,WUHU216HW,2013-01-19 21:49:00,
2013-01-19 14:54:00,64.6,25.7,30.10,NE,45,0.4,3.1,23,0.00,,,0.00,WUHU216HW,2013-01-19 21:54:00,
2013-01-19 14:59:00,64.8,24.8,30.10,NE,45,1.1,4.9,22,0.00,,,0.00,WUHU216HW,2013-01-19 21:59:00,
2013-01-19 15:05:00,64.4,24.5,30.10,NNE,23,1.6,4.9,22,0.00,,,0.00,WUHU216HW,2013-01-19 22:05:00,
2013-01-19 15:10:00,64.4,24.5,30.10,NE,45,1.6,3.1,22,0.00,,,0.00,WUHU216HW,2013-01-19 22:10:00,
2013-01-19 15:15:00,64.4,24.5,30.10,ENE,68,1.3,3.1,22,0.00,,,0.00,WUHU216HW,2013-01-19 22:15:00,
2013-01-19 15:20:00,64.6,25.7,30.10,NE,45,1.3,3.6,23,0.00,,,0.00,WUHU216HW,2013-01-19 22:20:00,
2013-01-19 15:25:00,64.6,25.7,30.10,SE,135,0.9,4.7,23,0.00,,,0.00,WUHU216HW,2013-01-19 22:25:00,
2013-01-19 15:30:00,64.8,25.7,30.10,ESE,113,3.1,4.7,23,0.00,,,0.00,WUHU216HW,2013-01-19 22:30:00,
2013-01-19 15:35:00,65.0,25.9,30.10,ENE,68,0.4,3.6,23,0.00,,,0.00,WUHU216HW,2013-01-19 22:35:00,
2013-01-19 15:40:00,64.8,25.7,30.10,East,90,0.4,3.6,23,0.00,,,0.00,WUHU216HW,2013-01-19 22:40:00,
2013-01-19 15:45:00,64.8,25.7,30.10,East,90,0.9,3.1,23,0.00,,,0.00,WUHU216HW,2013-01-19 22:45:00,
2013-01-19 15:50:00,64.8,26.7,30.10,East,90,1.1,2.5,24,0.00,,,0.00,WUHU216HW,2013-01-19 22:50:00,
2013-01-19 15:55:00,64.8,26.7,30.10,NE,45,2.5,2.5,24,0.00,,,0.00,WUHU216HW,2013-01-19 22:55:00,
2013-01-19 16:00:00,64.4,26.5,30.10,NE,45,2.5,2.9,24,0.00,,,0.00,WUHU216HW,2013-01-19 23:00:00,
2013-01-19 16:07:00,64.4,26.5,30.10,ENE,68,1.1,2.9,24,0.00,,,0.00,WUHU216HW,2013-01-19 23:07:00,
2013-01-19 16:12:00,64.4,26.5,30.10,SE,135,0.7,2.0,24,0.00,,,0.00,WUHU216HW,2013-01-19 23:12:00,
2013-01-19 16:17:00,64.4,26.5,30.10,NE,45,0.4,3.4,24,0.00,,,0.00,WUHU216HW,2013-01-19 23:17:00,
2013-01-19 16:22:00,64.1,26.2,30.10,NE,45,1.6,3.4,24,0.00,,,0.00,WUHU216HW,2013-01-19 23:22:00,
2013-01-19 16:28:00,63.9,26.0,30.10,NE,45,0.0,2.5,24,0.00,,,0.00,WUHU216HW,2013-01-19 23:28:00,
2013-01-19 16:33:00,63.9,26.0,30.10,NNE,23,0.9,2.5,24,0.00,,,0.00,WUHU216HW,2013-01-19 23:33:00,
2013-01-19 16:38:00,64.3,27.3,30.10,NE,45,1.1,2.5,25,0.00,,,0.00,WUHU216HW,2013-01-19 23:38:00,
2013-01-19 16:44:00,64.8,27.7,30.11,NE,45,1.3,2.5,25,0.00,,,0.00,WUHU216HW,2013-01-19 23:44:00,
2013-01-19 16:49:00,64.8,27.7,30.10,ENE,68,0.4,2.5,25,0.00,,,0.00,WUHU216HW,2013-01-19 23:49:00,
2013-01-19 16:54:00,65.5,27.4,30.10,NE,45,1.8,2.5,24,0.00,,,0.00,WUHU216HW,2013-01-19 23:54:00,
2013-01-19 16:59:00,65.5,27.4,30.10,NE,45,0.4,2.0,24,0.00,,,0.00,WUHU216HW,2013-01-19 23:59:00,
2013-01-19 17:04:00,64.8,26.7,30.10,NE,45,0.4,2.0,24,0.00,,,0.00,WUHU216HW,2013-01-20 00:04:00,
2013-01-19 17:09:00,64.1,27.2,30.10,NE,45,1.8,1.8,25,0.00,,,0.00,WUHU216HW,2013-01-20 00:09:00,
2013-01-19 17:15:00,63.2,26.4,30.11,NE,45,0.7,1.8,25,0.00,,,0.00,WUHU216HW,2013-01-20 00:15:00,
2013-01-19 17:20:00,62.3,25.7,30.11,NE,45,0.4,1.8,25,0.00,,,0.00,WUHU216HW,2013-01-20 00:20:00,
2013-01-19 17:25:00,61.6,25.0,30.11,NE,45,0.2,1.1,25,0.00,,,0.00,WUHU216HW,2013-01-20 00:25:00,
2013-01-19 17:30:00,60.8,24.4,30.11,NE,45,0.0,0.7,25,0.00,,,0.00,WUHU216HW,2013-01-20 00:30:00,
2013-01-19 17:35:00,60.3,25.8,30.11,NE,45,0.0,0.7,27,0.00,,,0.00,WUHU216HW,2013-01-20 00:35:00,
2013-01-19 17:40:00,59.8,25.4,30.11,NE,45,0.0,0.4,27,0.00,,,0.00,WUHU216HW,2013-01-20 00:40:00,
2013-01-19 17:45:00,59.0,24.9,30.11,NE,45,0.0,0.0,27,0.00,,,0.00,WUHU216HW,2013-01-20 00:45:00,
2013-01-19 17:50:00,58.1,25.0,30.11,NE,45,0.0,0.0,28,0.00,,,0.00,WUHU216HW,2013-01-20 00:50:00,
2013-01-19 17:55:00,57.6,24.5,30.11,NE,45,0.0,0.0,28,0.00,,,0.00,WUHU216HW,2013-01-20 00:55:00,
2013-01-19 18:00:00,56.9,24.9,30.11,NE,45,0.0,0.0,29,0.00,,,0.00,WUHU216HW,2013-01-20 01:00:00,
2013-01-19 18:05:00,56.2,24.2,30.11,NE,45,0.0,0.0,29,0.00,,,0.00,WUHU216HW,2013-01-20 01:05:00,
2013-01-19 18:11:00,55.4,24.5,30.11,North,0,0.0,0.0,30,0.00,,,0.00,WUHU216HW,2013-01-20 01:11:00,
2013-01-19 18:16:00,54.7,24.0,30.12,North,0,0.0,0.4,30,0.00,,,0.00,WUHU216HW,2013-01-20 01:16:00,
2013-01-19 18:21:00,54.4,24.3,30.12,North,0,0.0,0.4,31,0.00,,,0.00,WUHU216HW,2013-01-20 01:21:00,
2013-01-19 18:26:00,54.0,24.0,30.12,North,0,0.0,0.0,31,0.00,,,0.00,WUHU216HW,2013-01-20 01:26:00,
2013-01-19 18:31:00,53.5,24.2,30.12,North,0,0.0,0.0,32,0.00,,,0.00,WUHU216HW,2013-01-20 01:31:00,
2013-01-19 18:37:00,52.9,23.8,30.12,NNE,23,0.0,0.0,32,0.00,,,0.00,WUHU216HW,2013-01-20 01:37:00,
2013-01-19 18:43:00,52.6,23.4,30.12,NNE,23,0.0,0.0,32,0.00,,,0.00,WUHU216HW,2013-01-20 01:43:00,
2013-01-19 18:48:00,51.8,23.5,30.12,NNE,23,0.0,0.0,33,0.00,,,0.00,WUHU216HW,2013-01-20 01:48:00,
2013-01-19 18:54:00,51.5,23.9,30.12,ENE,68,0.0,0.4,34,0.00,,,0.00,WUHU216HW,2013-01-20 01:54:00,
2013-01-19 18:59:00,50.9,23.3,30.12,ENE,68,0.0,0.4,34,0.00,,,0.00,WUHU216HW,2013-01-20 01:59:00,
2013-01-19 19:04:00,50.8,23.2,30.13,ENE,68,0.0,0.4,34,0.00,,,0.00,WUHU216HW,2013-01-20 02:04:00,
2013-01-19 19:09:00,50.0,24.0,30.13,ENE,68,0.0,0.0,36,0.00,,,0.00,WUHU216HW,2013-01-20 02:09:00,
2013-01-19 19:14:00,49.7,23.6,30.13,ENE,68,0.0,0.0,36,0.00,,,0.00,WUHU216HW,2013-01-20 02:14:00,
2013-01-19 19:19:00,49.3,23.9,30.13,East,90,0.0,0.0,37,0.00,,,0.00,WUHU216HW,2013-01-20 02:19:00,
2013-01-19 19:24:00,49.1,23.8,30.13,East,90,0.0,0.0,37,0.00,,,0.00,WUHU216HW,2013-01-20 02:24:00,
2013-01-19 19:29:00,48.8,23.5,30.13,East,90,0.0,0.0,37,0.00,,,0.00,WUHU216HW,2013-01-20 02:29:00,
2013-01-19 19:34:00,48.4,23.9,30.13,East,90,0.0,0.0,38,0.00,,,0.00,WUHU216HW,2013-01-20 02:34:00,
2013-01-19 19:39:00,48.2,23.7,30.13,East,90,0.0,0.0,38,0.00,,,0.00,WUHU216HW,2013-01-20 02:39:00,
2013-01-19 19:44:00,47.9,23.4,30.13,East,90,0.0,0.0,38,0.00,,,0.00,WUHU216HW,2013-01-20 02:44:00,
2013-01-19 19:49:00,47.5,23.0,30.14,East,90,0.0,0.0,38,0.00,,,0.00,WUHU216HW,2013-01-20 02:49:00,
2013-01-19 19:54:00,47.3,22.9,30.14,East,90,0.0,0.0,38,0.00,,,0.00,WUHU216HW,2013-01-20 02:54:00,
2013-01-19 19:59:00,47.2,23.4,30.14,East,90,0.0,0.0,39,0.00,,,0.00,WUHU216HW,2013-01-20 02:59:00,
2013-01-19 20:04:00,46.8,23.0,30.14,NNW,338,0.0,0.4,39,0.00,,,0.00,WUHU216HW,2013-01-20 03:04:00,
2013-01-19 20:09:00,46.4,23.4,30.14,NNW,338,0.0,0.4,40,0.00,,,0.00,WUHU216HW,2013-01-20 03:09:00,
2013-01-19 20:14:00,46.3,23.2,30.14,NNW,338,0.0,0.0,40,0.00,,,0.00,WUHU216HW,2013-01-20 03:14:00,
2013-01-19 20:19:00,46.1,23.6,30.14,NNW,338,0.0,0.2,41,0.00,,,0.00,WUHU216HW,2013-01-20 03:19:00,
2013-01-19 20:24:00,45.9,23.5,30.14,NNW,338,0.0,0.2,41,0.00,,,0.00,WUHU216HW,2013-01-20 03:24:00,
2013-01-19 20:30:00,45.7,23.3,30.15,NNW,338,0.0,0.0,41,0.00,,,0.00,WUHU216HW,2013-01-20 03:30:00,
2013-01-19 20:35:00,45.7,23.9,30.15,North,0,0.0,0.0,42,0.00,,,0.00,WUHU216HW,2013-01-20 03:35:00,
2013-01-19 20:40:00,45.5,23.7,30.14,North,0,0.0,0.0,42,0.00,,,0.00,WUHU216HW,2013-01-20 03:40:00,
2013-01-19 20:45:00,45.4,23.5,30.14,North,0,0.0,0.0,42,0.00,,,0.00,WUHU216HW,2013-01-20 03:45:00,
2013-01-19 20:50:00,45.2,23.9,30.14,North,0,0.0,0.0,43,0.00,,,0.00,WUHU216HW,2013-01-20 03:50:00,
2013-01-19 20:55:00,45.0,23.8,30.14,North,0,0.0,0.0,43,0.00,,,0.00,WUHU216HW,2013-01-20 03:55:00,
2013-01-19 21:01:00,45.0,23.8,30.14,NE,45,0.0,0.0,43,0.00,,,0.00,WUHU216HW,2013-01-20 04:01:00,
2013-01-19 21:06:00,44.8,24.1,30.15,NE,45,0.0,0.0,44,0.00,,,0.00,WUHU216HW,2013-01-20 04:06:00,
2013-01-19 21:11:00,44.8,24.1,30.15,NE,45,0.0,0.0,44,0.00,,,0.00,WUHU216HW,2013-01-20 04:11:00,
2013-01-19 21:16:00,44.6,23.9,30.15,NE,45,0.0,0.0,44,0.00,,,0.00,WUHU216HW,2013-01-20 04:16:00,
2013-01-19 21:22:00,44.5,23.8,30.15,NE,45,0.0,0.0,44,0.00,,,0.00,WUHU216HW,2013-01-20 04:22:00,
2013-01-19 21:27:00,44.3,23.6,30.15,NE,45,0.0,0.0,44,0.00,,,0.00,WUHU216HW,2013-01-20 04:27:00,
2013-01-19 21:32:00,44.3,24.1,30.15,North,0,0.0,0.2,45,0.00,,,0.00,WUHU216HW,2013-01-20 04:32:00,
2013-01-19 21:37:00,44.3,24.1,30.15,NE,45,0.0,0.2,45,0.00,,,0.00,WUHU216HW,2013-01-20 04:37:00,
2013-01-19 21:42:00,44.3,24.1,30.15,NE,45,0.0,0.2,45,0.00,,,0.00,WUHU216HW,2013-01-20 04:42:00,
2013-01-19 21:47:00,44.5,24.3,30.15,NE,45,0.0,0.0,45,0.00,,,0.00,WUHU216HW,2013-01-20 04:47:00,
2013-01-19 21:52:00,44.5,24.3,30.15,ENE,68,0.0,0.2,45,0.00,,,0.00,WUHU216HW,2013-01-20 04:52:00,
2013-01-19 21:57:00,44.3,24.1,30.15,ENE,68,0.0,0.2,45,0.00,,,0.00,WUHU216HW,2013-01-20 04:57:00,
2013-01-19 22:01:00,44.3,24.1,30.15,ENE,68,0.0,0.0,45,0.00,,,0.00,WUHU216HW,2013-01-20 05:01:00,
2013-01-19 22:03:00,44.1,24.0,30.15,ENE,68,0.0,0.4,45,0.00,,,0.00,WUHU216HW,2013-01-20 05:03:00,
2013-01-19 22:08:00,43.9,23.9,30.15,ENE,68,0.0,0.4,45,0.00,,,0.00,WUHU216HW,2013-01-20 05:08:00,
2013-01-19 22:13:00,43.7,23.7,30.15,ENE,68,0.0,0.2,45,0.00,,,0.00,WUHU216HW,2013-01-20 05:13:00,
2013-01-19 22:18:00,43.6,23.5,30.15,ENE,68,0.0,0.2,45,0.00,,,0.00,WUHU216HW,2013-01-20 05:18:00,
2013-01-19 22:23:00,43.4,23.9,30.15,ENE,68,0.0,0.0,46,0.00,,,0.00,WUHU216HW,2013-01-20 05:23:00,
2013-01-19 22:28:00,43.2,23.8,30.15,ENE,68,0.0,0.0,46,0.00,,,0.00,WUHU216HW,2013-01-20 05:28:00,
2013-01-19 22:33:00,43.0,23.6,30.15,SSW,203,0.0,0.0,46,0.00,,,0.00,WUHU216HW,2013-01-20 05:33:00,
2013-01-19 22:38:00,43.2,23.8,30.15,SE,135,0.0,0.4,46,0.00,,,0.00,WUHU216HW,2013-01-20 05:38:00,
2013-01-19 22:43:00,43.0,23.6,30.15,NNE,23,0.0,0.4,46,0.00,,,0.00,WUHU216HW,2013-01-20 05:43:00,
2013-01-19 22:48:00,43.0,23.6,30.15,East,90,0.0,0.7,46,0.00,,,0.00,WUHU216HW,2013-01-20 05:48:00,
2013-01-19 22:53:00,42.8,23.4,30.15,East,90,0.2,0.7,46,0.00,,,0.00,WUHU216HW,2013-01-20 05:53:00,
2013-01-19 22:58:00,42.8,23.4,30.15,East,90,0.0,0.4,46,0.00,,,0.00,WUHU216HW,2013-01-20 05:58:00,
2013-01-19 23:03:00,42.7,23.2,30.15,East,90,0.0,0.2,46,0.00,,,0.00,WUHU216HW,2013-01-20 06:03:00,
2013-01-19 23:08:00,42.5,23.0,30.15,East,90,0.0,0.0,46,0.00,,,0.00,WUHU216HW,2013-01-20 06:08:00,
2013-01-19 23:13:00,42.7,23.2,30.15,East,90,0.0,0.4,46,0.00,,,0.00,WUHU216HW,2013-01-20 06:13:00,
2013-01-19 23:18:00,42.7,23.2,30.15,East,90,0.0,0.4,46,0.00,,,0.00,WUHU216HW,2013-01-20 06:18:00,
2013-01-19 23:23:00,42.7,23.8,30.15,East,90,0.0,0.2,47,0.00,,,0.00,WUHU216HW,2013-01-20 06:23:00,
2013-01-19 23:28:00,42.5,23.6,30.15,East,90,0.4,0.4,47,0.00,,,0.00,WUHU216HW,2013-01-20 06:28:00,
2013-01-19 23:33:00,42.3,23.4,30.15,East,90,0.2,0.4,47,0.00,,,0.00,WUHU216HW,2013-01-20 06:33:00,
2013-01-19 23:38:00,42.1,23.2,30.15,East,90,0.0,0.4,47,0.00,,,0.00,WUHU216HW,2013-01-20 06:38:00,
2013-01-19 23:43:00,42.1,23.2,30.15,East,90,0.0,0.4,47,0.00,,,0.00,WUHU216HW,2013-01-20 06:43:00,
2013-01-19 23:48:00,41.8,22.9,30.15,East,90,0.0,0.0,47,0.00,,,0.00,WUHU216HW,2013-01-20 06:48:00,
2013-01-19 23:53:00,41.8,23.4,30.14,East,90,0.0,0.0,48,0.00,,,0.00,WUHU216HW,2013-01-20 06:53:00,
2013-01-19 23:58:00,41.6,23.2,30.14,East,90,0.0,0.0,48,0.00,,,0.00,WUHU216HW,2013-01-20 06:58:00,